FW3713 Weather Reports


Display with metric or nautical units.
time (UTC)temp
F
wind
direction
speed
MPH
gust
MPH
rain 1hr
in
rain 24hr
in
rain mn
in
humidity
%
barometer
mb
20210423000015 72 249 6.0 12.0 0.00 0.00 0.00 8 1018.4
20210422235511 72 283 5.0 12.0 0.00 0.00 0.00 8 1018.5
20210422235006 72 254 6.0 11.0 0.00 0.00 0.00 8 1018.5
20210422234459 72 295 7.0 11.0 0.00 0.00 0.00 8 1018.5
20210422233953 72 270 5.0 11.0 0.00 0.00 0.00 8 1018.5
20210422233446 72 265 5.0 11.0 0.00 0.00 0.00 9 1018.5
20210422232939 72 254 6.0 11.0 0.00 0.00 0.00 8 1018.4
20210422232435 71 261 6.0 13.0 0.00 0.00 0.00 8 1018.5
20210422231928 71 258 6.0 13.0 0.00 0.00 0.00 8 1018.5
20210422231423 71 279 5.0 11.0 0.00 0.00 0.00 9 1018.5
20210422230917 71 268 5.0 11.0 0.00 0.00 0.00 9 1018.5
20210422230411 71 335 6.0 11.0 0.00 0.00 0.00 8 1018.5
20210422225910 71 257 7.0 13.0 0.00 0.00 0.00 9 1018.5
20210422225411 71 251 9.0 13.0 0.00 0.00 0.00 8 1018.5
20210422224910 71 272 8.0 17.0 0.00 0.00 0.00 8 1018.6
20210422224410 71 283 6.0 17.0 0.00 0.00 0.00 8 1018.5
20210422223910 72 266 4.0 11.0 0.00 0.00 0.00 8 1018.6
20210422223411 72 200 5.0 13.0 0.00 0.00 0.00 8 1018.6
20210422222912 72 263 8.0 15.0 0.00 0.00 0.00 8 1018.7
20210422222410 72 239 6.0 15.0 0.00 0.00 0.00 8 1018.6
20210422221909 72 270 6.0 15.0 0.00 0.00 0.00 9 1018.7
20210422221410 72 213 7.0 15.0 0.00 0.00 0.00 9 1018.8
20210422220911 72 283 5.0 16.0 0.00 0.00 0.00 8 1018.8
20210422220411 72 251 4.0 16.0 0.00 0.00 0.00 9 1019.0
20210422215910 71 263 5.0 13.0 0.00 0.00 0.00 9 1019.0
20210422215411 71 293 7.0 15.0 0.00 0.00 0.00 9 1019.2
20210422214905 71 235 9.0 15.0 0.00 0.00 0.00 9 1019.1
20210422214407 72 293 7.0 13.0 0.00 0.00 0.00 9 1019.2
20210422213905 72 264 7.0 14.0 0.00 0.00 0.00 9 1019.2
20210422213407 71 249 7.0 15.0 0.00 0.00 0.00 9 1019.3
20210422212905 72 276 6.0 15.0 0.00 0.00 0.00 9 1019.3
20210422212405 72 279 7.0 16.0 0.00 0.00 0.00 9 1019.4
20210422211905 72 297 8.0 16.0 0.00 0.00 0.00 8 1019.5
20210422211405 73 241 5.0 15.0 0.00 0.00 0.00 9 1019.5
20210422210906 73 253 5.0 13.0 0.00 0.00 0.00 9 1019.7
20210422210402 73 259 7.0 13.0 0.00 0.00 0.00 9 1019.8
20210422205903 74 258 6.0 13.0 0.00 0.00 0.00 8 1019.8
20210422205401 75 262 3.0 13.0 0.00 0.00 0.00 8 1019.9
20210422204902 75 199 2.0 7.0 0.00 0.00 0.00 12 1019.9
20210422204402 75 251 3.0 8.0 0.00 0.00 0.00 10 1020.1
20210422203902 75 355 2.0 8.0 0.00 0.00 0.00 13 1020.2
20210422203401 74 216 2.0 7.0 0.00 0.00 0.00 14 1020.2
20210422202901 73 168 2.0 9.0 0.00 0.00 0.00 14 1020.4
20210422202401 73 292 4.0 10.0 0.00 0.00 0.00 13 1020.5
20210422201902 73 152 4.0 10.0 0.00 0.00 0.00 14 1020.8
20210422201403 74 142 4.0 9.0 0.00 0.00 0.00 14 1020.8
20210422200900 73 120 4.0 11.0 0.00 0.00 0.00 14 1020.9
20210422200401 73 244 3.0 11.0 0.00 0.00 0.00 13 1021.2
20210422195859 73 141 3.0 8.0 0.00 0.00 0.00 13 1021.2
20210422195401 73 266 4.0 12.0 0.00 0.00 0.00 13 1021.3
20210422194901 72 151 6.0 16.0 0.00 0.00 0.00 14 1021.4
20210422194358 72 179 6.0 16.0 0.00 0.00 0.00 14 1021.5
20210422193855 72 189 6.0 16.0 0.00 0.00 0.00 14 1021.6
20210422193355 72 222 7.0 16.0 0.00 0.00 0.00 15 1021.6
20210422192901 73 118 4.0 15.0 0.00 0.00 0.00 14 1021.5
20210422192355 72 209 4.0 16.0 0.00 0.00 0.00 14 1021.8
20210422191855 73 281 5.0 16.0 0.00 0.00 0.00 13 1021.9
20210422191354 72 350 4.0 15.0 0.00 0.00 0.00 13 1021.9
20210422190854 72 144 3.0 15.0 0.00 0.00 0.00 13 1022.0
20210422190354 71 278 3.0 9.0 0.00 0.00 0.00 14 1022.2
20210422185855 71 279 4.0 13.0 0.00 0.00 0.00 14 1022.3
20210422185347 70 181 3.0 13.0 0.00 0.00 0.00 15 1022.5
20210422184838 70 92 4.0 17.0 0.00 0.00 0.00 14 1022.6
20210422184339 69 253 4.0 17.0 0.00 0.00 0.00 14 1022.6
20210422183827 68 244 4.0 10.0 0.00 0.00 0.00 15 1022.7
20210422183322 68 268 5.0 12.0 0.00 0.00 0.00 15 1022.9
20210422182821 68 268 4.0 12.0 0.00 0.00 0.00 14 1023.0
20210422182309 68 169 4.0 10.0 0.00 0.00 0.00 15 1023.2
20210422181805 68 255 5.0 14.0 0.00 0.00 0.00 15 1023.4
20210422181258 69 243 4.0 14.0 0.00 0.00 0.00 14 1023.5
20210422180752 70 275 4.0 12.0 0.00 0.00 0.00 15 1023.6
20210422180256 69 268 4.0 11.0 0.00 0.00 0.00 14 1023.7
20210422175738 69 166 4.0 10.0 0.00 0.00 0.00 15 1023.8
20210422175234 68 265 5.0 11.0 0.00 0.00 0.00 15 1024.0
20210422174728 68 91 4.0 11.0 0.00 0.00 0.00 16 1024.1
20210422174222 68 268 3.0 9.0 0.00 0.00 0.00 16 1024.1
20210422173716 68 174 3.0 9.0 0.00 0.00 0.00 18 1024.3
20210422173210 67 254 3.0 8.0 0.00 0.00 0.00 17 1024.4
20210422172704 66 229 4.0 13.0 0.00 0.00 0.00 18 1024.4
20210422172159 65 226 4.0 13.0 0.00 0.00 0.00 20 1024.4
20210422171652 65 150 3.0 8.0 0.00 0.00 0.00 20 1024.4
20210422171146 64 193 2.0 8.0 0.00 0.00 0.00 22 1024.5
20210422170639 64 236 2.0 5.0 0.00 0.00 0.00 22 1024.5
20210422170133 63 162 2.0 6.0 0.00 0.00 0.00 22 1024.7
20210422165628 63 280 3.0 7.0 0.00 0.00 0.00 23 1024.8
20210422165122 64 264 3.0 7.0 0.00 0.00 0.00 22 1024.9
20210422164616 64 284 3.0 7.0 0.00 0.00 0.00 21 1024.9
20210422164110 64 248 2.0 6.0 0.00 0.00 0.00 22 1024.9
20210422163609 64 262 1.0 3.0 0.00 0.00 0.00 23 1025.0
20210422163058 63 274 2.0 4.0 0.00 0.00 0.00 23 1025.0
20210422162551 63 275 2.0 4.0 0.00 0.00 0.00 24 1025.0
20210422162046 63 245 1.0 3.0 0.00 0.00 0.00 24 1025.0
20210422161540 63 181 1.0 2.0 0.00 0.00 0.00 25 1025.0
20210422161033 62 180 1.0 3.0 0.00 0.00 0.00 26 1025.1
20210422160526 61 180 1.0 4.0 0.00 0.00 0.00 26 1025.2
20210422160022 61 180 1.0 4.0 0.00 0.00 0.00 26 1025.2
20210422155517 60 337 1.0 2.0 0.00 0.00 0.00 27 1025.1
20210422155009 59 340 1.0 2.0 0.00 0.00 0.00 28 1025.1
20210422154504 58 333 1.0 2.0 0.00 0.00 0.00 29 1025.2
20210422153958 56 334 0.0 1.0 0.00 0.00 0.00 31 1025.2
20210422153452 55 335 1.0 2.0 0.00 0.00 0.00 31 1025.2
20210422152945 54 336 2.0 3.0 0.00 0.00 0.00 32 1025.2
20210422152441 53 316 2.0 4.0 0.00 0.00 0.00 32 1025.4
20210422151932 53 329 1.0 4.0 0.00 0.00 0.00 33 1025.2
20210422151433 52 63 1.0 2.0 0.00 0.00 0.00 34 1025.2
20210422150931 51 63 1.0 3.0 0.00 0.00 0.00 35 1025.2
20210422150429 50 63 1.0 3.0 0.00 0.00 0.00 35 1025.2
20210422145931 50 335 1.0 2.0 0.00 0.00 0.00 37 1025.4
20210422145428 49 335 1.0 4.0 0.00 0.00 0.00 38 1025.2
20210422144927 49 335 2.0 4.0 0.00 0.00 0.00 36 1025.4
20210422144427 48 330 2.0 4.0 0.00 0.00 0.00 37 1025.4
20210422143928 48 334 2.0 4.0 0.00 0.00 0.00 38 1025.2
20210422143427 47 331 2.0 4.0 0.00 0.00 0.00 39 1025.2
20210422142926 47 355 2.0 6.0 0.00 0.00 0.00 39 1025.4
20210422142425 46 5 2.0 6.0 0.00 0.00 0.00 39 1025.5
20210422141925 46 19 2.0 3.0 0.00 0.00 0.00 40 1025.4
20210422141423 46 324 2.0 3.0 0.00 0.00 0.00 40 1025.4
20210422140921 46 355 2.0 4.0 0.00 0.00 0.00 40 1025.4
20210422140423 45 20 3.0 5.0 0.00 0.00 0.00 40 1025.5
20210422135923 45 18 3.0 5.0 0.00 0.00 0.00 40 1025.4
20210422135420 45 317 2.0 5.0 0.00 0.00 0.00 41 1025.2
20210422134916 45 5 2.0 6.0 0.00 0.00 0.00 41 1025.2
20210422134424 45 326 2.0 6.0 0.00 0.00 0.00 41 1025.1
20210422133915 45 330 2.0 5.0 0.00 0.00 0.00 41 1025.2
20210422133416 45 341 2.0 6.0 0.00 0.00 0.00 41 1025.1
20210422132915 45 329 2.0 6.0 0.00 0.00 0.00 41 1025.0
20210422132415 44 15 2.0 5.0 0.00 0.00 0.00 41 1024.9
20210422131915 44 6 3.0 6.0 0.00 0.00 0.00 41 1024.9
20210422131415 44 320 3.0 6.0 0.00 0.00 0.00 41 1024.9
20210422130918 44 335 2.0 5.0 0.00 0.00 0.00 41 1024.9
20210422130415 45 346 3.0 5.0 0.00 0.00 0.00 41 1025.0
20210422125916 45 330 2.0 5.0 0.00 0.00 0.00 41 1024.9
20210422125410 45 322 1.0 3.0 0.00 0.00 0.00 41 1024.7
20210422124911 45 321 2.0 4.0 0.00 0.00 0.00 40 1024.5
20210422124412 45 344 2.0 4.0 0.00 0.00 0.00 40 1024.4
20210422123921 45 337 2.0 4.0 0.00 0.00 0.00 40 1024.3
20210422123410 45 333 2.0 4.0 0.00 0.00 0.00 40 1024.3
20210422122910 45 60 2.0 4.0 0.00 0.00 0.00 40 1024.2
20210422122410 45 323 2.0 5.0 0.00 0.00 0.00 39 1024.1
20210422121910 45 346 2.0 5.0 0.00 0.00 0.00 39 1024.0
20210422121412 45 23 2.0 4.0 0.00 0.00 0.00 39 1023.8
20210422120912 46 4 2.0 4.0 0.00 0.00 0.00 39 1024.0
20210422120411 46 329 2.0 4.0 0.00 0.00 0.00 39 1023.8
20210422115910 46 329 2.0 4.0 0.00 0.00 0.00 38 1023.8
20210422115411 46 329 2.0 4.0 0.00 0.00 0.00 39 1023.7
20210422114910 46 355 2.0 4.0 0.00 0.00 0.00 38 1023.7
20210422114410 46 12 2.0 5.0 0.00 0.00 0.00 38 1023.7
20210422113910 46 350 2.0 5.0 0.00 0.00 0.00 37 1023.7
20210422113410 46 29 2.0 5.0 0.00 0.00 0.00 37 1023.6
20210422112912 46 315 2.0 5.0 0.00 0.00 0.00 37 1023.7
20210422112412 46 337 2.0 5.0 0.00 0.00 0.00 37 1023.7
20210422111910 46 14 3.0 5.0 0.00 0.00 0.00 36 1023.6
20210422111415 46 8 2.0 5.0 0.00 0.00 0.00 36 1023.6
20210422110912 46 26 2.0 4.0 0.00 0.00 0.00 36 1023.5
20210422110406 47 10 2.0 5.0 0.00 0.00 0.00 36 1023.5
20210422105858 47 24 2.0 5.0 0.00 0.00 0.00 36 1023.6
20210422105351 47 337 2.0 4.0 0.00 0.00 0.00 36 1023.5
20210422104846 47 29 2.0 4.0 0.00 0.00 0.00 35 1023.3
20210422104340 47 336 2.0 4.0 0.00 0.00 0.00 35 1023.4
20210422103834 47 340 2.0 4.0 0.00 0.00 0.00 35 1023.4
20210422103328 47 337 2.0 5.0 0.00 0.00 0.00 35 1023.3
20210422102822 47 346 2.0 5.0 0.00 0.00 0.00 35 1023.2
20210422102317 47 4 1.0 4.0 0.00 0.00 0.00 35 1023.2
20210422101810 47 330 2.0 4.0 0.00 0.00 0.00 35 1023.0
20210422101303 48 335 2.0 4.0 0.00 0.00 0.00 35 1023.0
20210422100757 48 337 2.0 4.0 0.00 0.00 0.00 34 1022.9
20210422100257 48 322 2.0 4.0 0.00 0.00 0.00 35 1023.0
20210422095748 48 321 2.0 4.0 0.00 0.00 0.00 34 1023.0
20210422095240 48 19 2.0 4.0 0.00 0.00 0.00 34 1023.0
20210422094734 48 329 2.0 4.0 0.00 0.00 0.00 34 1023.0
20210422094231 48 335 2.0 4.0 0.00 0.00 0.00 34 1022.9
20210422093719 48 335 2.0 5.0 0.00 0.00 0.00 34 1023.0
20210422093215 48 4 2.0 5.0 0.00 0.00 0.00 34 1023.0
20210422092713 48 319 2.0 4.0 0.00 0.00 0.00 34 1023.0
20210422092203 49 15 2.0 4.0 0.00 0.00 0.00 34 1023.0
20210422091655 49 327 2.0 4.0 0.00 0.00 0.00 34 1023.2
20210422091149 49 355 2.0 4.0 0.00 0.00 0.00 34 1023.2
20210422090655 49 15 2.0 6.0 0.00 0.00 0.00 33 1023.2
20210422090137 49 8 2.0 6.0 0.00 0.00 0.00 33 1023.3
20210422085633 49 339 1.0 4.0 0.00 0.00 0.00 33 1023.2
20210422085125 49 326 2.0 4.0 0.00 0.00 0.00 33 1023.2
20210422084619 49 7 2.0 4.0 0.00 0.00 0.00 33 1023.2
20210422084116 49 12 3.0 6.0 0.00 0.00 0.00 33 1023.0
20210422083607 49 19 2.0 6.0 0.00 0.00 0.00 33 1023.0
20210422083103 50 355 2.0 4.0 0.00 0.00 0.00 34 1023.2
20210422082557 50 335 2.0 5.0 0.00 0.00 0.00 34 1023.0
20210422082050 50 346 2.0 5.0 0.00 0.00 0.00 34 1023.2
20210422081545 50 6 1.0 3.0 0.00 0.00 0.00 34 1023.0
20210422081042 50 17 1.0 3.0 0.00 0.00 0.00 34 1023.2
20210422080542 50 17 2.0 3.0 0.00 0.00 0.00 34 1023.2
20210422080042 50 326 2.0 4.0 0.00 0.00 0.00 34 1023.2
20210422075542 50 4 1.0 4.0 0.00 0.00 0.00 33 1023.2
20210422075042 51 341 1.0 4.0 0.00 0.00 0.00 33 1023.3
20210422074543 51 341 2.0 4.0 0.00 0.00 0.00 33 1023.3
20210422074043 51 328 2.0 3.0 0.00 0.00 0.00 33 1023.3
20210422073540 51 318 2.0 4.0 0.00 0.00 0.00 33 1023.3
20210422073039 51 312 1.0 4.0 0.00 0.00 0.00 33 1023.2
20210422072536 51 326 1.0 4.0 0.00 0.00 0.00 33 1023.3
20210422072036 51 326 1.0 4.0 0.00 0.00 0.00 32 1023.3
20210422071537 52 327 2.0 3.0 0.00 0.00 0.00 32 1023.2
20210422071036 52 327 1.0 2.0 0.00 0.00 0.00 32 1023.3
20210422070537 52 326 1.0 3.0 0.00 0.00 0.00 32 1023.2
20210422070037 52 326 1.0 3.0 0.00 0.00 0.00 32 1023.0
20210422065536 52 326 1.0 3.0 0.00 0.00 0.00 31 1023.3
20210422065039 53 326 1.0 5.0 0.00 0.00 0.00 31 1023.3
20210422064530 53 326 1.0 5.0 0.00 0.00 0.00 30 1023.2
20210422064032 53 48 1.0 4.0 0.00 0.00 0.00 30 1023.2
20210422063530 53 321 1.0 4.0 0.00 0.00 0.00 30 1023.2
20210422063031 54 335 1.0 3.0 0.00 0.00 0.00 30 1023.2
20210422062527 54 336 1.0 3.0 0.00 0.00 0.00 30 1023.2
20210422062028 54 7 2.0 4.0 0.00 0.00 0.00 29 1023.2
20210422061529 54 56 2.0 6.0 0.00 0.00 0.00 29 1023.0
20210422061028 54 75 2.0 7.0 0.00 0.00 0.00 29 1023.0
20210422060529 54 83 2.0 7.0 0.00 0.00 0.00 29 1022.9
20210422060025 54 100 2.0 6.0 0.00 0.00 0.00 30 1022.9
20210422055525 54 125 2.0 6.0 0.00 0.00 0.00 30 1022.9
20210422055025 54 145 2.0 7.0 0.00 0.00 0.00 29 1022.8
20210422054531 54 158 3.0 12.0 0.00 0.00 0.00 29 1022.8
20210422054026 54 144 4.0 12.0 0.00 0.00 0.00 29 1022.8
20210422053524 55 149 4.0 12.0 0.00 0.00 0.00 29 1022.7
20210422053022 55 156 4.0 11.0 0.00 0.00 0.00 29 1022.6
20210422052525 55 132 5.0 11.0 0.00 0.00 0.00 29 1022.6
20210422052024 55 161 6.0 11.0 0.00 0.00 0.00 29 1022.5
20210422051517 55 99 6.0 14.0 0.00 0.00 0.00 29 1022.5
20210422051015 55 134 6.0 14.0 0.00 0.00 0.00 29 1022.2
20210422050516 55 139 6.0 12.0 0.00 0.00 0.00 29 1022.2
20210422050019 55 123 6.0 14.0 0.00 0.00 0.00 29 1022.2
20210422045517 55 145 6.0 14.0 0.00 0.00 0.00 29 1022.2
20210422045015 55 158 6.0 15.0 0.00 0.00 0.00 29 1022.3
20210422044514 55 166 6.0 15.0 0.00 0.00 0.00 29 1022.3
20210422044015 56 106 6.0 15.0 0.00 0.00 0.00 29 1022.2
20210422043529 56 155 7.0 15.0 0.00 0.00 0.00 29 1022.1
20210422043028 56 56 6.0 14.0 0.00 0.00 0.00 28 1022.1
20210422042517 56 166 6.0 17.0 0.00 0.00 0.00 28 1022.2
20210422042018 56 154 6.0 17.0 0.00 0.00 0.00 28 1021.9
20210422041512 56 161 6.0 15.0 0.00 0.00 0.00 28 1021.9
20210422041012 56 183 6.0 15.0 0.00 0.00 0.00 28 1021.8
20210422040512 57 130 6.0 14.0 0.00 0.00 0.00 28 1021.8
20210422040012 57 185 6.0 13.0 0.00 0.00 0.00 28 1021.6
20210422035514 57 146 7.0 15.0 0.00 0.00 0.00 28 1021.6
20210422035013 57 123 7.0 15.0 0.00 0.00 0.00 28 1021.6
20210422034514 57 164 6.0 15.0 0.00 0.00 0.00 27 1021.5
20210422034013 58 193 7.0 15.0 0.00 0.00 0.00 27 1021.4
20210422033512 58 155 6.0 16.0 0.00 0.00 0.00 27 1021.3
20210422033013 58 143 6.0 16.0 0.00 0.00 0.00 27 1021.2
20210422032512 58 108 6.0 15.0 0.00 0.00 0.00 27 1021.2
20210422032012 58 125 7.0 16.0 0.00 0.00 0.00 27 1021.1
20210422031512 58 137 7.0 16.0 0.00 0.00 0.00 27 1020.9
20210422031013 59 98 7.0 16.0 0.00 0.00 0.00 26 1020.8
20210422030512 59 143 7.0 16.0 0.00 0.00 0.00 27 1020.8
20210422030013 59 133 7.0 16.0 0.00 0.00 0.00 26 1020.7
20210422025512 59 109 6.0 16.0 0.00 0.00 0.00 26 1020.8
20210422025012 60 160 6.0 16.0 0.00 0.00 0.00 26 1020.7
20210422024514 60 135 6.0 14.0 0.00 0.00 0.00 26 1020.6
20210422024013 60 135 6.0 13.0 0.00 0.00 0.00 26 1020.6
20210422023506 60 141 6.0 13.0 0.00 0.00 0.00 26 1020.5
20210422023004 61 116 5.0 13.0 0.00 0.00 0.00 26 1020.6
20210422022503 61 106 5.0 12.0 0.00 0.00 0.00 25 1020.5
20210422022002 61 166 4.0 12.0 0.00 0.00 0.00 25 1020.5
20210422021502 61 138 5.0 12.0 0.00 0.00 0.00 25 1020.4
20210422021002 62 104 5.0 12.0 0.00 0.00 0.00 25 1020.4
20210422020502 62 178 5.0 12.0 0.00 0.00 0.00 24 1020.4
20210422020002 62 103 5.0 12.0 0.00 0.00 0.00 25 1020.4
20210422015502 62 139 4.0 10.0 0.00 0.00 0.00 24 1020.2
20210422015003 63 127 5.0 12.0 0.00 0.00 0.00 24 1020.4
20210422014502 63 83 5.0 14.0 0.00 0.00 0.00 24 1020.4
20210422014002 63 123 5.0 14.0 0.00 0.00 0.00 23 1020.4
20210422013502 64 175 4.0 10.0 0.00 0.00 0.00 24 1020.4
20210422013003 64 192 5.0 13.0 0.00 0.00 0.00 23 1020.5
20210422012504 64 94 6.0 13.0 0.00 0.00 0.00 23 1020.4
20210422012002 65 146 6.0 14.0 0.00 0.00 0.00 22 1020.4
20210422011450 66 71 6.0 14.0 0.00 0.00 0.00 22 1020.5
20210422010945 67 105 7.0 13.0 0.00 0.00 0.00 22 1020.5
20210422010438 67 193 6.0 13.0 0.00 0.00 0.00 22 1020.4
20210422005932 67 169 5.0 13.0 0.00 0.00 0.00 22 1020.5
20210422005426 67 188 4.0 10.0 0.00 0.00 0.00 22 1020.5
20210422004922 67 175 5.0 11.0 0.00 0.00 0.00 22 1020.6
20210422004414 67 160 5.0 11.0 0.00 0.00 0.00 22 1020.6
20210422003909 67 168 6.0 12.0 0.00 0.00 0.00 22 1020.7
20210422003401 67 172 5.0 12.0 0.00 0.00 0.00 22 1020.7
20210422002855 68 165 5.0 12.0 0.00 0.00 0.00 21 1020.8
20210422002350 68 125 5.0 13.0 0.00 0.00 0.00 21 1020.9
20210422001844 68 183 5.0 13.0 0.00 0.00 0.00 21 1021.1
20210422001338 68 168 5.0 11.0 0.00 0.00 0.00 21 1020.9
20210422000831 68 194 6.0 12.0 0.00 0.00 0.00 21 1021.1
20210422000327 68 146 6.0 12.0 0.00 0.00 0.00 21 1021.1